CW5229 Weather Reports


Display with metric or nautical units.
time (UTC)temp
F
wind
direction
speed
MPH
gust
MPH
rain 1hr
in
rain 24hr
in
rain mn
in
humidity
%
barometer
mb
20260502163105 51 272 2.0 7.0 0.00 0.00 0.00 44 1019.4
20260502161547 50 61 1.0 6.0 0.00 0.00 0.00 45 1019.7
20260502151539 50 311 1.0 6.0 0.00 0.00 0.00 48 1019.8
20260502123057 38 319 0.0 0.0 0.00 0.00 0.00 87 1019.7
20260502121547 36 319 0.0 1.0 0.00 0.00 0.00 89 1019.6
20260502114547 33 8 0.0 0.0 0.00 0.00 0.00 91 1019.3
20260502113040 29 9 0.0 0.0 0.00 0.00 0.00 92 1019.1
20260502111544 26 9 0.0 0.0 0.00 0.00 0.00 91 1019.2
20260502110035 26 9 0.0 0.0 0.00 0.00 0.00 90 1019.0
20260502104533 27 9 0.0 0.0 0.00 0.01 0.00 90 1018.9
20260502103032 27 9 0.0 0.0 0.00 0.01 0.00 90 1018.9
20260502101531 28 9 0.0 0.0 0.00 0.01 0.00 90 1018.9
20260502091528 28 9 0.0 0.0 0.00 0.01 0.00 90 1018.8
20260502070050 30 9 0.0 0.0 0.00 0.01 0.00 88 1018.8
20260502064545 30 9 0.0 0.0 0.00 0.06 0.00 87 1018.9
20260502063039 31 9 0.0 0.0 0.00 0.06 0.00 87 1019.0
20260502061533 31 9 0.0 0.0 0.00 0.06 0.00 87 1019.0
20260502060031 31 9 0.0 0.0 0.00 0.06 0.00 87 1019.1
20260502054530 31 9 0.0 0.0 0.00 0.07 0.00 86 1019.1
20260502053027 32 9 0.0 0.0 0.00 0.07 0.00 87 1019.2
20260502051529 31 9 0.0 0.0 0.00 0.07 0.00 86 1019.2
20260502050029 31 9 0.0 0.0 0.00 0.07 0.00 85 1019.2
20260502044520 32 9 0.0 0.0 0.00 0.08 0.00 84 1019.2
20260502043055 33 9 0.0 0.0 0.00 0.08 0.00 84 1019.2
20260502041549 33 9 0.0 0.0 0.00 0.08 0.00 83 1019.2
20260502040016 34 9 0.0 0.0 0.00 0.08 0.00 82 1019.2
20260502034511 35 9 0.0 0.0 0.00 0.09 0.00 82 1019.1
20260502033012 35 9 0.0 0.0 0.00 0.09 0.00 81 1019.0
20260502031503 35 9 0.0 0.0 0.00 0.09 0.00 80 1018.9
20260502030108 35 9 0.0 0.0 0.00 0.09 0.00 78 1018.8
20260502024558 36 9 0.0 0.0 0.00 0.15 0.00 77 1018.7
20260502023053 37 9 0.0 0.0 0.00 0.15 0.00 76 1018.7
20260502021550 37 6 0.0 0.0 0.00 0.15 0.00 77 1018.6
20260502020047 38 6 0.0 0.0 0.00 0.15 0.00 76 1018.4
20260502014553 38 18 0.0 3.0 0.00 0.15 0.00 75 1018.1
20260502013039 39 34 0.0 3.0 0.00 0.15 0.00 75 1017.9
20260502011545 39 44 0.0 3.0 0.00 0.15 0.00 74 1017.8
20260502010035 39 75 1.0 6.0 0.00 0.15 0.00 73 1017.5
20260502004533 40 84 1.0 5.0 0.00 0.15 0.00 73 1017.5
20260502003028 41 17 1.0 6.0 0.00 0.15 0.00 71 1017.3
20260502001557 42 51 1.0 5.0 0.00 0.15 0.00 69 1017.1
20260502000105 42 53 3.0 7.0 0.00 0.15 0.00 67 1017.1
20260501234521 43 62 2.0 8.0 0.00 0.16 0.00 69 1017.2
20260501233120 43 33 2.0 8.0 0.00 0.16 0.00 67 1017.0
20260501231518 44 55 2.0 8.0 0.00 0.16 0.00 67 1017.0
20260501230011 45 13 0.0 6.0 0.00 0.16 0.00 67 1017.0
20260501224509 45 60 1.0 5.0 0.00 0.20 0.00 66 1017.1
20260501223010 45 63 1.0 8.0 0.00 0.20 0.00 67 1017.1
20260501221517 45 65 0.0 6.0 0.00 0.20 0.00 69 1017.1
20260501220012 45 51 1.0 5.0 0.00 0.20 0.00 67 1017.1
20260501214509 46 7 1.0 6.0 0.00 0.21 0.00 67 1017.0
20260501213003 46 65 0.0 5.0 0.00 0.21 0.00 68 1017.0
20260501211502 46 56 3.0 7.0 0.00 0.21 0.00 63 1016.9
20260501210001 47 78 1.0 5.0 0.00 0.21 0.00 64 1016.8
20260501204608 47 70 2.0 6.0 0.00 0.21 0.00 64 1016.9
20260501203059 47 76 0.0 4.0 0.00 0.21 0.00 66 1016.8
20260501201607 47 45 2.0 8.0 0.00 0.21 0.00 66 1016.9
20260501200055 46 63 1.0 9.0 0.00 0.21 0.00 67 1016.9
20260501194556 46 63 1.0 7.0 0.00 0.21 0.00 68 1016.9
20260501193055 46 51 1.0 4.0 0.00 0.21 0.00 71 1016.8
20260501191547 45 108 1.0 6.0 0.00 0.21 0.00 72 1016.9
20260501190044 45 21 2.0 7.0 0.00 0.21 0.00 72 1016.8
20260501184542 46 60 0.0 6.0 0.00 0.21 0.00 73 1016.6
20260501183048 45 32 1.0 7.0 0.00 0.21 0.00 73 1016.4
20260501181539 46 325 1.0 7.0 0.00 0.21 0.00 74 1016.2
20260501180037 46 92 0.0 5.0 0.00 0.21 0.00 74 1016.1
20260501174542 46 319 2.0 7.0 0.00 0.21 0.00 75 1016.1